Llagostera





Hora UTC 22:25
Temperatura 8.6 ºC
Humitat 92.0 %
Pressió 1017.5 hPa
Pluja 0.2 mm
Velocitat vent 0.0 km/h
Direcció vent

Dades diàries 2020-03-31



Hora UTC (hivern +1h; estiu +2h)
Temperatura (ºC) Humitat (%) Pressió (hPa) Velocitat vent (km/h) Precipitació (mm)
Hora UTC Aire Humitat Pressió Vel. Dir. Vel. Max Dir. Intent. màx 5 min.
00:05 6.1 86.0 1016.1 0.0 9.7 0.0
00:10 6.1 86.0 1016.1 0.0 9.7 0.0
00:15 6.1 86.0 1016.1 0.0 9.7 0.0
00:20 6.2 86.0 1016.1 0.0 9.7 0.0
00:25 6.2 86.0 1016.0 0.0 9.7 0.0
00:30 6.2 87.0 1016.0 0.0 9.7 0.0
00:35 6.2 87.0 1016.1 0.0 9.7 0.0
00:40 6.3 87.0 1016.0 0.0 9.7 0.0
00:45 6.2 87.0 1016.0 0.0 9.7 0.0
00:50 6.2 87.0 1015.9 0.0 9.7 0.0
00:55 6.2 87.0 1015.9 0.0 9.7 0.0
01:00 6.2 87.0 1015.9 1.6 9.7 0.0
01:05 6.2 88.0 1015.9 3.2 9.7 0.0
01:10 6.2 88.0 1015.9 1.6 9.7 0.0
01:15 6.2 88.0 1015.8 0.0 9.7 0.0
01:20 6.2 88.0 1015.8 0.0 9.7 0.0
01:25 6.2 89.0 1015.8 0.0 9.7 0.0
01:30 6.2 89.0 1015.7 0.0 9.7 0.0
01:35 6.2 89.0 1015.6 0.0 9.7 0.0
01:40 6.2 89.0 1015.5 0.0 9.7 0.0
01:45 6.3 89.0 1015.5 0.0 9.7 0.0
01:50 6.3 89.0 1015.4 0.0 9.7 0.0
01:55 6.2 89.0 1015.4 0.0 9.7 0.0
02:00 6.3 89.0 1015.4 1.6 9.7 0.0
02:05 6.3 89.0 1015.3 1.6 9.7 0.0
02:10 6.3 89.0 1015.3 1.6 9.7 0.0
02:15 6.3 89.0 1015.4 0.0 9.7 0.0
02:20 6.3 89.0 1015.4 0.0 9.7 0.0
02:25 6.3 89.0 1015.2 0.0 9.7 0.0
02:30 6.4 89.0 1015.1 0.0 9.7 0.0
02:35 6.4 89.0 1015.2 0.0 9.7 0.0
02:40 6.4 86.0 1015.1 1.6 9.7 0.0
02:45 6.4 85.0 1015.3 1.6 9.7 0.0
02:50 6.3 83.0 1015.2 0.0 9.7 0.0
02:55 6.4 82.0 1015.3 1.6 9.7 0.0
03:00 6.4 81.0 1015.3 1.6 9.7 0.0
03:05 6.4 81.0 1015.5 0.0 9.7 0.0
03:10 6.5 81.0 1015.4 0.0 9.7 0.0
03:15 6.6 80.0 1015.4 1.6 9.7 0.0
03:20 6.6 80.0 1015.5 1.6 9.7 0.0
03:25 6.6 80.0 1015.4 1.6 9.7 0.0
03:30 6.6 80.0 1015.4 3.2 9.7 0.0
03:35 6.7 80.0 1015.6 1.6 9.7 0.0
03:40 6.7 80.0 1015.5 1.6 9.7 0.0
03:45 6.6 80.0 1015.6 3.2 9.7 0.0
03:50 6.7 81.0 1015.5 4.8 9.7 0.0
03:55 6.6 80.0 1015.4 4.8 9.7 0.0
04:00 6.6 80.0 1015.5 3.2 9.7 0.0
04:05 6.6 80.0 1015.5 3.2 9.7 0.0
04:10 6.6 79.0 1015.5 3.2 9.7 0.0
04:15 6.6 78.0 1015.6 3.2 9.7 0.0
04:20 6.6 78.0 1015.6 3.2 9.7 0.0
04:25 6.7 79.0 1015.6 3.2 9.7 0.0
04:30 6.7 79.0 1015.6 4.8 9.7 0.0
04:35 6.7 80.0 1015.6 4.8 9.7 0.0
04:40 6.7 80.0 1015.7 4.8 9.7 0.0
04:45 6.7 80.0 1015.6 3.2 9.7 0.0
04:50 6.6 80.0 1015.7 1.6 9.7 0.0
04:55 6.6 80.0 1015.5 0.0 9.7 0.0
05:00 6.6 80.0 1015.6 1.6 9.7 0.0
05:05 6.6 80.0 1015.5 1.6 9.7 0.0
05:10 6.6 80.0 1015.6 1.6 9.7 0.0
05:15 6.7 80.0 1015.5 3.2 9.7 0.0
05:20 6.6 79.0 1015.5 4.8 9.7 0.0
05:25 6.7 79.0 1015.4 3.2 9.7 0.0
05:30 6.7 79.0 1015.2 3.2 9.7 0.0
05:35 6.6 79.0 1015.4 3.2 9.7 0.0
05:40 6.6 78.0 1015.4 3.2 9.7 0.0
05:45 6.6 78.0 1015.6 3.2 9.7 0.0
05:50 6.4 78.0 1015.6 1.6 9.7 0.0
05:55 6.4 78.0 1015.7 0.0 9.7 0.0
06:00 6.4 78.0 1015.7 0.0 9.7 0.0
06:05 6.4 78.0 1015.8 0.0 9.7 0.0
06:10 6.4 78.0 1015.8 0.0 9.7 0.0
06:15 6.4 78.0 1016.0 1.6 9.7 0.0
06:20 6.6 79.0 1016.2 1.6 9.7 0.0
06:25 6.6 79.0 1016.2 0.0 9.7 0.0
06:30 6.7 79.0 1016.3 0.0 9.7 0.0
06:35 6.9 78.0 1016.2 1.6 9.7 0.0
06:40 7.2 78.0 1016.2 3.2 9.7 0.0
06:45 7.4 77.0 1016.2 4.8 9.7 0.0
06:50 7.7 75.0 1016.3 3.2 9.7 0.0
06:55 7.8 75.0 1016.2 4.8 9.7 0.0
07:00 7.9 74.0 1016.3 4.8 9.7 0.0
07:05 8.0 74.0 1016.3 4.8 9.7 0.0
07:10 8.0 74.0 1016.3 4.8 9.7 0.0
07:15 8.2 74.0 1016.2 4.8 9.7 0.0
07:20 8.3 71.0 1016.2 4.8 9.7 0.0
07:25 8.3 72.0 1016.1 6.4 14.5 0.0
07:30 8.4 72.0 1016.0 6.4 14.5 0.0
07:35 8.5 70.0 1016.2 8.0 16.1 0.0
07:40 8.6 70.0 1016.1 9.7 16.1 0.0
07:45 8.7 71.0 1016.0 9.7 16.1 0.0
07:50 8.7 71.0 1016.0 9.7 16.1 0.0
07:55 8.9 71.0 1016.1 9.7 19.3 0.0
08:00 9.0 70.0 1016.2 9.7 19.3 0.0
08:05 9.0 70.0 1016.2 11.3 19.3 0.0
08:10 9.1 70.0 1016.2 12.9 19.3 0.0
08:15 9.2 71.0 1016.2 9.7 19.3 0.0
08:20 9.2 69.0 1016.1 8.0 19.3 0.0
08:25 9.3 70.0 1016.2 6.4 19.3 0.0
08:30 9.5 71.0 1016.2 6.4 19.3 0.0
08:35 9.6 69.0 1016.2 8.0 19.3 0.0
08:40 9.7 69.0 1016.2 8.0 19.3 0.0
08:45 9.7 68.0 1016.2 6.4 19.3 0.0
08:50 9.9 70.0 1016.2 6.4 19.3 0.0
08:55 10.1 69.0 1016.2 6.4 19.3 0.0
09:00 10.2 69.0 1016.1 6.4 19.3 0.0
09:05 10.3 70.0 1016.2 6.4 19.3 0.0
09:10 10.4 70.0 1016.2 6.4 19.3 0.0
09:15 10.4 69.0 1016.0 6.4 19.3 0.0
09:20 10.3 69.0 1016.1 8.0 19.3 0.0
09:25 10.3 69.0 1016.1 8.0 19.3 0.0
09:30 10.3 69.0 1016.0 8.0 19.3 0.0
09:35 10.3 69.0 1016.1 8.0 19.3 0.0
09:40 10.2 70.0 1016.2 8.0 19.3 0.0
09:45 10.2 70.0 1016.1 9.7 19.3 0.0
09:50 10.1 70.0 1016.1 9.7 19.3 0.0
09:55 10.0 70.0 1016.1 9.7 19.3 0.0
10:00 10.0 71.0 1016.0 9.7 19.3 0.0
10:05 10.0 70.0 1016.1 9.7 19.3 0.0
10:10 10.0 70.0 1016.1 9.7 19.3 0.0
10:15 10.1 70.0 1016.0 9.7 19.3 0.0
10:20 10.1 70.0 1016.0 11.3 19.3 0.0
10:25 10.1 70.0 1016.1 11.3 19.3 0.0
10:30 10.1 69.0 1016.1 11.3 19.3 0.0
10:35 10.2 69.0 1016.1 11.3 19.3 0.0
10:40 10.2 69.0 1016.1 11.3 22.5 0.0
10:45 10.2 69.0 1016.1 9.7 22.5 0.0
10:50 10.2 69.0 1016.1 11.3 22.5 0.0
10:55 10.3 68.0 1016.0 11.3 22.5 0.0
11:00 10.4 68.0 1016.0 11.3 24.1 0.0
11:05 10.4 68.0 1016.0 11.3 24.1 0.0
11:10 10.6 70.0 1016.1 9.7 24.1 0.0
11:15 10.5 68.0 1016.0 11.3 24.1 0.0
11:20 10.4 69.0 1016.0 12.9 24.1 0.0
11:25 10.5 69.0 1016.0 12.9 24.1 0.0
11:30 10.5 68.0 1015.9 14.5 24.1 0.0
11:35 10.6 69.0 1015.9 14.5 24.1 0.0
11:40 10.7 69.0 1015.9 12.9 24.1 0.0
11:45 10.9 69.0 1015.9 11.3 24.1 0.0
11:50 11.0 69.0 1015.8 12.9 24.1 0.0
11:55 11.1 69.0 1015.8 11.3 24.1 0.0
12:00 11.2 70.0 1015.9 9.7 24.1 0.0
12:05 11.3 71.0 1015.8 9.7 24.1 0.0
12:10 11.4 69.0 1015.9 12.9 24.1 0.0
12:15 11.3 68.0 1015.9 11.3 24.1 0.0
12:20 11.3 68.0 1015.9 11.3 24.1 0.0
12:25 11.2 69.0 1015.9 12.9 24.1 0.0
12:30 11.1 69.0 1016.0 11.3 24.1 0.0
12:35 11.1 70.0 1016.0 9.7 24.1 0.0
12:40 11.1 70.0 1016.0 9.7 24.1 0.0
12:45 11.1 70.0 1016.0 9.7 24.1 0.0
12:50 11.0 70.0 1016.0 9.7 24.1 0.0
12:55 11.0 71.0 1015.9 11.3 24.1 0.0
13:00 11.0 71.0 1015.9 9.7 24.1 0.0
13:05 11.1 72.0 1015.9 11.3 24.1 0.0
13:10 11.0 73.0 1015.8 12.9 24.1 0.0
13:15 10.9 72.0 1015.9 12.9 24.1 0.0
13:20 10.8 72.0 1016.0 12.9 24.1 0.0
13:25 10.8 72.0 1015.9 11.3 24.1 0.0
13:30 10.8 73.0 1016.0 8.0 24.1 0.0
13:35 10.8 72.0 1015.9 9.7 24.1 0.0
13:40 10.7 73.0 1016.0 9.7 24.1 0.0
13:45 10.7 73.0 1016.0 9.7 24.1 0.0
13:50 10.8 73.0 1016.0 9.7 24.1 0.0
13:55 10.8 73.0 1015.9 9.7 24.1 0.0
14:00 10.9 73.0 1015.8 9.7 24.1 0.0
14:05 10.8 73.0 1015.8 11.3 24.1 0.0
14:10 10.8 73.0 1015.6 12.9 24.1 0.0
14:15 10.9 73.0 1015.5 11.3 24.1 0.0
14:20 10.9 72.0 1015.5 9.7 24.1 0.0
14:25 10.8 72.0 1015.5 9.7 24.1 0.0
14:30 10.7 72.0 1015.6 12.9 24.1 0.0
14:35 10.7 73.0 1015.7 12.9 24.1 0.0
14:40 10.6 73.0 1015.9 11.3 24.1 0.0
14:45 10.6 73.0 1016.0 8.0 24.1 0.0
14:50 10.6 74.0 1016.0 3.2 24.1 0.0
14:55 10.7 74.0 1016.0 3.2 24.1 0.0
15:00 10.8 74.0 1016.0 3.2 24.1 0.0
15:05 11.0 74.0 1016.0 6.4 24.1 0.0
15:10 11.2 73.0 1016.0 8.0 24.1 0.0
15:15 11.2 72.0 1016.0 9.7 24.1 0.0
15:20 11.3 72.0 1016.0 9.7 24.1 0.0
15:25 11.3 71.0 1015.9 9.7 24.1 0.0
15:30 11.3 71.0 1015.8 9.7 24.1 0.0
15:35 11.3 71.0 1015.7 9.7 24.1 0.0
15:40 11.2 70.0 1015.5 8.0 24.1 0.0
15:45 10.9 70.0 1015.6 9.7 24.1 0.0
15:50 10.9 71.0 1015.8 8.0 24.1 0.0
15:55 10.8 71.0 1015.8 6.4 24.1 0.0
16:00 10.7 72.0 1015.8 8.0 24.1 0.0
16:05 10.7 71.0 1015.6 9.7 24.1 0.0
16:10 10.6 71.0 1015.7 12.9 24.1 0.0
16:15 10.6 71.0 1015.7 11.3 24.1 0.0
16:20 10.4 71.0 1015.8 9.7 24.1 0.0
16:25 10.4 71.0 1015.8 9.7 24.1 0.0
16:30 10.4 72.0 1015.7 9.7 24.1 0.0
16:35 10.3 72.0 1015.8 6.4 24.1 0.0
16:40 10.3 73.0 1015.8 6.4 24.1 0.0
16:45 10.2 73.0 1015.8 6.4 24.1 0.0
16:50 10.1 73.0 1015.8 6.4 24.1 0.0
16:55 10.0 73.0 1015.8 9.7 24.1 0.0
17:00 9.9 74.0 1015.9 9.7 24.1 0.0
17:05 9.9 74.0 1016.0 6.4 24.1 0.0
17:10 9.9 74.0 1016.0 6.4 24.1 0.0
17:15 9.9 74.0 1016.2 6.4 24.1 0.0
17:20 9.9 74.0 1016.2 3.2 24.1 0.0
17:25 9.9 74.0 1016.2 1.6 24.1 0.0
17:30 9.9 75.0 1016.3 1.6 24.1 0.0
17:35 9.8 75.0 1016.3 4.8 24.1 0.0
17:40 9.8 75.0 1016.3 4.8 24.1 0.0
17:45 9.7 75.0 1016.4 6.4 24.1 0.0
17:50 9.7 75.0 1016.4 6.4 24.1 0.0
17:55 9.7 76.0 1016.5 4.8 24.1 0.0
18:00 9.7 77.0 1016.5 4.8 24.1 0.0
18:05 9.6 77.0 1016.5 4.8 24.1 0.0
18:10 9.6 78.0 1016.7 4.8 24.1 0.0
18:15 9.4 78.0 1016.7 3.2 24.1 0.0
18:20 9.3 78.0 1016.7 3.2 24.1 0.0
18:25 9.2 79.0 1016.6 3.2 24.1 0.0
18:30 9.2 79.0 1016.6 4.8 24.1 0.0
18:35 9.1 80.0 1016.7 4.8 24.1 0.0
18:40 9.1 80.0 1016.7 3.2 24.1 0.0
18:45 9.0 80.0 1016.8 3.2 24.1 0.0
18:50 8.9 80.0 1016.8 1.6 24.1 0.0
18:55 8.9 80.0 1017.0 0.0 24.1 0.0
19:00 8.9 81.0 1016.9 0.0 24.1 0.0
19:05 8.9 81.0 1016.9 1.6 24.1 0.0
19:10 8.9 81.0 1017.0 3.2 24.1 0.0
19:15 8.8 82.0 1017.0 3.2 24.1 0.2
19:20 8.8 82.0 1017.1 3.2 24.1 0.0
19:25 8.7 83.0 1017.2 3.2 24.1 0.0
19:30 8.7 83.0 1017.2 3.2 24.1 0.0
19:35 8.7 83.0 1017.2 3.2 24.1 0.2
19:40 8.7 83.0 1017.2 3.2 24.1 0.0
19:45 8.7 84.0 1017.3 3.2 24.1 0.0
19:50 8.6 84.0 1017.3 3.2 24.1 0.2
19:55 8.6 85.0 1017.3 3.2 24.1 0.0
20:00 8.6 85.0 1017.2 1.6 24.1 0.2
20:05 8.6 86.0 1017.3 1.6 24.1 0.0
20:10 8.6 86.0 1017.3 3.2 24.1 0.2
20:15 8.6 86.0 1017.4 3.2 24.1 0.2
20:20 8.6 86.0 1017.3 4.8 24.1 0.0
20:25 8.6 86.0 1017.4 4.8 24.1 0.2
20:30 8.6 86.0 1017.4 4.8 24.1 0.2
20:35 8.6 87.0 1017.4 4.8 24.1 0.0
20:40 8.5 87.0 1017.3 1.6 24.1 0.2
20:45 8.5 87.0 1017.4 1.6 24.1 0.2
20:50 8.5 88.0 1017.4 4.8 24.1 0.2
20:55 8.5 88.0 1017.3 4.8 24.1 0.2
21:00 8.5 89.0 1017.4 4.8 24.1 0.2
21:05 8.5 89.0 1017.3 4.8 24.1 0.2
21:10 8.6 89.0 1017.4 4.8 24.1 0.2
21:15 8.6 90.0 1017.3 4.8 24.1 0.2
21:20 8.6 90.0 1017.4 6.4 24.1 0.2
21:25 8.6 90.0 1017.4 6.4 24.1 0.2
21:30 8.6 90.0 1017.4 4.8 24.1 0.2
21:35 8.6 90.0 1017.4 4.8 24.1 0.4
21:40 8.6 91.0 1017.4 4.8 24.1 0.2
21:45 8.6 91.0 1017.5 4.8 24.1 0.2
21:50 8.6 91.0 1017.4 3.2 24.1 0.2
21:55 8.6 91.0 1017.4 4.8 24.1 0.0
22:00 8.6 92.0 1017.4 4.8 24.1 0.0
22:05 8.6 92.0 1017.3 4.8 24.1 0.0
22:10 8.6 92.0 1017.4 3.2 3.2 0.0
22:15 8.6 92.0 1017.5 1.6 3.2 0.2
22:20 8.6 92.0 1017.5 0.0 3.2 0.0
22:25 8.6 92.0 1017.5 0.0 3.2 0.0
Màxima 11.4 92.0 1017.5 14.5 24.1 0.4
Mínima 6.1 68.0 1015.1
Total 5.0